[[{"header":{"parameterUnit":"m.s-1","parameterCategory":1,"la1":30.2991,"la2":30.254,"lo1":-89.0895,"lo2":-89.0444,"dx":0.0017,"dy":0.0017,"nx":28,"ny":28,"refTime":"2023-01-22T03:00:00:Z","depth":0,"parameterNumber":2,"parameterNumberName":"U-component_of_WINDS"},"data":[0,0,0,0,0,0,0,0,0,0,0,0,0,0,0,0,0,0,0,0,0,0,0,0,0,0,0,0,0,0,0,0,0,0,0,0,0,0,0,0,0,0,0,0,0,0,0,0,0,0,0,0,0,0,0,0,0,0,4.6564,4.6565,0,4.6687,4.6688,4.669,4.6674,4.6672,4.667,4.6668,4.6791,4.6796,4.6801,0,0,0,0,0,0,0,0,0,0,0,0,0,4.6313,4.6317,4.6564,4.6565,4.6567,4.6687,4.6688,4.669,4.6675,4.6672,4.667,4.6668,4.679,4.6796,4.6802,0,0,0,0,0,0,0,0,0,0,0,0,0,4.6427,4.6319,4.6563,4.6574,4.6576,4.6686,4.6688,4.6691,4.6675,4.6672,4.6669,4.6666,4.6788,4.6795,4.6803,4.691,0,0,4.6826,4.683,0,0,0,0,0,0,0,0,4.6421,4.6436,4.6571,4.6573,4.6576,4.6662,4.6645,4.6764,4.6676,4.6637,4.6668,4.6665,4.6751,4.6761,4.6791,4.6916,4.6921,4.6827,4.6832,4.6835,4.6837,0,0,0,0,0,0,0,4.6413,4.6431,4.6612,4.6573,4.6576,4.6571,4.6584,4.6667,4.6709,4.664,4.664,4.6655,4.6751,4.6783,4.6793,4.6923,4.6827,4.6834,4.6838,4.6841,4.7142,4.7146,0,0,0,0,0,0,4.6403,4.6425,4.6608,4.6616,4.6489,4.6578,4.6593,4.6637,4.6708,4.6716,4.6657,4.6653,4.6772,4.6785,4.6798,4.6928,4.6835,4.6842,4.6846,4.7139,4.7143,4.7147,0,0,0,0,0,0,4.6397,4.6419,4.6603,4.652,4.6543,4.6586,4.6636,4.6641,4.6673,4.6721,4.6728,4.6682,4.677,4.6787,4.6883,4.6932,4.6846,4.6853,4.7135,4.714,4.7145,4.7189,0,0,0,0,0,0,4.639,4.6417,4.6459,4.6521,4.6548,4.6687,4.6639,4.6646,4.6687,4.6684,4.6746,4.6754,4.6769,4.6871,4.689,4.6941,4.6859,4.7131,4.7137,4.7143,4.7183,4.7195,4.7205,0,0,0,0,0,4.6381,4.6466,4.6461,4.6484,4.6601,4.669,4.6705,4.6721,4.6691,4.6733,4.6764,4.6752,4.6924,4.6881,4.6902,4.6956,4.7128,4.7135,4.7143,4.7179,4.7193,4.7205,0,0,0,0,0,0,4.6407,4.6474,4.647,4.6577,4.6628,4.6687,4.674,4.6736,4.6796,4.679,4.6807,4.6821,4.6918,4.6947,4.6898,4.7064,4.7021,4.7034,4.7041,4.7055,4.7066,4.7056,4.6865,0,0,0,0,0,4.6426,4.6493,4.6548,4.6637,4.6663,4.6698,4.6737,4.6745,4.6798,4.6819,4.6857,4.6908,4.6973,4.7016,4.7079,4.7188,4.7201,4.7236,4.7246,4.7255,4.7265,4.7325,4.734,4.7172,4.7172,4.7172,0,0,4.6464,4.6509,4.655,4.6644,4.6684,4.6753,4.6716,4.679,4.6841,4.683,4.6923,4.6953,4.7011,4.7113,4.716,4.714,4.7315,4.7265,4.7271,4.7277,4.7334,4.735,4.7364,4.7177,4.7176,4.7175,0,0,4.6568,4.661,4.6689,4.673,4.6793,4.6815,4.6834,4.6895,4.6914,4.7008,4.7002,4.7062,4.7175,4.7216,4.7252,4.7374,4.7365,4.7394,4.745,4.7508,4.7521,4.7533,4.7576,4.7591,4.7404,4.7404,4.7405,0,4.6607,4.6712,4.6729,4.6805,4.6846,4.6842,4.6921,4.6961,4.704,4.7068,4.7045,4.7187,4.7225,4.7338,4.7368,4.7397,4.7419,4.7386,4.7518,4.753,4.7542,4.7583,4.7599,4.7407,4.7407,4.7407,4.7407,0,4.6757,4.6829,4.6885,4.6963,4.7011,4.7088,4.7117,4.7163,4.7168,4.7192,4.7288,4.7335,4.7407,4.7435,4.7439,4.7548,4.7534,4.7515,4.7472,4.756,4.7599,4.7615,4.7412,4.7411,4.741,4.7409,0,0,4.6879,4.6967,4.6988,4.7023,4.7092,4.7148,4.7225,4.7297,4.7336,4.7391,4.7455,4.7551,4.7534,4.7575,4.7585,4.7636,4.7729,4.761,4.7612,4.763,4.7851,4.7864,4.7882,4.7724,4.7727,4.773,4.7846,0,4.699,4.7127,4.7146,4.7267,4.7334,4.7331,4.7398,4.7447,4.7473,4.7532,4.756,4.7628,4.7601,4.7625,4.7676,4.7707,4.7773,4.7699,4.7783,4.7786,4.7767,4.7902,4.7917,4.8024,4.7861,4.7864,4.7865,0,4.7137,4.7197,4.7325,4.7386,4.7414,4.7474,4.7542,4.76,4.7655,4.767,4.7717,4.7721,4.78,4.7755,4.7864,4.7813,4.7849,4.7869,4.7874,4.7881,4.783,4.7912,4.8058,4.8074,4.789,4.7888,4.7886,0,4.7213,4.7326,4.7417,4.7448,4.7521,4.7563,4.7595,4.7648,4.769,4.7749,4.7777,4.7844,4.7881,4.7932,4.7954,4.792,4.8061,4.8018,4.8075,4.8075,4.8104,4.8101,4.8256,4.8129,4.8129,4.8128,4.8128,0,4.7334,4.7412,4.7452,4.7508,4.7596,4.7617,4.7702,4.7733,4.778,4.7842,4.7843,4.7901,4.7926,4.7988,4.8005,4.8092,4.8109,4.8122,4.8126,4.8122,4.812,4.8144,4.8137,4.8133,4.8132,4.8131,4.813,0,4.7432,4.7463,4.7562,4.7624,4.7641,4.7702,4.7755,4.7808,4.7834,4.7912,4.7931,4.7971,4.8043,4.8071,4.8158,4.817,4.827,4.8268,4.8252,4.8252,4.8307,4.8301,4.8482,4.8507,4.8364,4.8365,4.8367,0,4.7507,4.7567,4.7636,4.7677,4.7711,4.7778,4.7822,4.7845,4.789,4.7959,4.8004,4.8077,4.8136,4.8251,4.8287,4.8354,4.8353,4.8412,4.8363,4.8357,4.8353,4.8349,4.8355,4.8421,4.8422,4.8423,4.8424,0,4.7636,4.7648,4.7712,4.7781,4.7833,4.7888,4.7941,4.7975,4.8006,4.8057,4.8132,4.8177,4.8268,4.8339,4.8408,4.8441,4.8438,4.844,4.8456,4.8452,4.8439,4.8446,4.8275,4.8435,4.8434,4.8433,4.8433,4.8432,4.7724,4.7778,4.7834,4.7905,4.7948,4.7998,4.8052,4.8085,4.8148,4.8224,4.8234,4.8313,4.8368,4.8461,4.8496,4.8558,4.8543,4.8567,4.8572,4.8578,4.8581,4.8431,4.8571,4.8571,4.8571,4.8571,4.857,0,4.7853,4.7889,4.7954,4.8029,4.8085,4.8079,4.8138,4.8184,4.8255,4.8307,4.8365,4.8451,4.852,4.8563,4.8632,4.8674,4.8674,4.8692,4.8688,4.8695,4.8592,4.857,4.869,4.869,4.869,4.869,4.869,4.869,4.7926,4.8016,4.8035,4.8146,4.8182,4.8261,4.8295,4.8342,4.8383,4.8479,4.8537,4.8565,4.8613,4.8686,4.875,4.876,4.8785,4.8804,4.8813,4.8715,4.8703,4.8691,4.867,4.8809,4.881,4.8911,4.8912,4.8913]},{"header":{"parameterUnit":"m.s-1","parameterCategory":1,"la1":30.2991,"la2":30.254,"lo1":-89.0895,"lo2":-89.0444,"dx":0.0017,"dy":0.0017,"nx":28,"ny":28,"refTime":"2023-01-22T03:00:00:Z","depth":0,"parameterNumber":3,"parameterNumberName":"V-component_of_WINDS"},"data":[0,0,0,0,0,0,0,0,0,0,0,0,0,0,0,0,0,0,0,0,0,0,0,0,0,0,0,0,0,0,0,0,0,0,0,0,0,0,0,0,0,0,0,0,0,0,0,0,0,0,0,0,0,0,0,0,0,0,-2.2136,-2.2138,0,-2.2247,-2.2248,-2.2249,-2.2264,-2.2263,-2.2262,-2.2261,-2.2374,-2.2378,-2.2382,0,0,0,0,0,0,0,0,0,0,0,0,0,-2.1939,-2.1943,-2.2136,-2.2138,-2.2139,-2.2246,-2.2248,-2.2249,-2.2264,-2.2263,-2.2262,-2.226,-2.2373,-2.2377,-2.2382,0,0,0,0,0,0,0,0,0,0,0,0,0,-2.2035,-2.1944,-2.2136,-2.2159,-2.2163,-2.2246,-2.2248,-2.225,-2.2264,-2.2263,-2.2261,-2.226,-2.2371,-2.2377,-2.2383,-2.2451,0,0,-2.2401,-2.2404,0,0,0,0,0,0,0,0,-2.2029,-2.2042,-2.2155,-2.2158,-2.2162,-2.224,-2.222,-2.2317,-2.2265,-2.2226,-2.2261,-2.2259,-2.2331,-2.234,-2.2364,-2.2456,-2.2461,-2.2401,-2.2405,-2.2408,-2.2409,0,0,0,0,0,0,0,-2.2022,-2.2037,-2.218,-2.2156,-2.2161,-2.2164,-2.2176,-2.2238,-2.2286,-2.2229,-2.223,-2.2243,-2.2332,-2.2358,-2.2367,-2.2463,-2.2401,-2.2407,-2.241,-2.2413,-2.2617,-2.2618,0,0,0,0,0,0,-2.2012,-2.2031,-2.2176,-2.2183,-2.209,-2.2169,-2.2182,-2.2216,-2.2285,-2.2294,-2.2244,-2.2243,-2.2349,-2.236,-2.2371,-2.2455,-2.2408,-2.2413,-2.2417,-2.2615,-2.2617,-2.2619,0,0,0,0,0,0,-2.2007,-2.2024,-2.2172,-2.2108,-2.2127,-2.2174,-2.2212,-2.2219,-2.2245,-2.2297,-2.2305,-2.2262,-2.2348,-2.2362,-2.2431,-2.2459,-2.2416,-2.2421,-2.2613,-2.2615,-2.2618,-2.2624,0,0,0,0,0,0,-2.2002,-2.2023,-2.2049,-2.2108,-2.213,-2.223,-2.2214,-2.2223,-2.2255,-2.2255,-2.2315,-2.2324,-2.2348,-2.2422,-2.2437,-2.2467,-2.2426,-2.261,-2.2614,-2.2617,-2.2622,-2.2627,-2.2631,0,0,0,0,0,-2.1994,-2.2046,-2.205,-2.2068,-2.2164,-2.2232,-2.2244,-2.2271,-2.2258,-2.2285,-2.2318,-2.2322,-2.2454,-2.2429,-2.2446,-2.2478,-2.2609,-2.2613,-2.2617,-2.262,-2.2626,-2.2631,0,0,0,0,0,0,-2.1989,-2.2055,-2.206,-2.2132,-2.2176,-2.2234,-2.2269,-2.2277,-2.2325,-2.2323,-2.2354,-2.2367,-2.2434,-2.2463,-2.2434,-2.2548,-2.253,-2.2538,-2.2526,-2.2533,-2.2537,-2.2529,-2.2431,0,0,0,0,0,-2.1996,-2.2046,-2.21,-2.2159,-2.2181,-2.2221,-2.2252,-2.2268,-2.2315,-2.2334,-2.2372,-2.2417,-2.2469,-2.2503,-2.2553,-2.2626,-2.264,-2.2657,-2.2661,-2.2665,-2.2671,-2.2713,-2.2721,-2.2633,-2.2633,-2.2632,0,0,-2.2012,-2.2054,-2.2083,-2.2159,-2.2195,-2.2246,-2.2237,-2.2291,-2.2329,-2.2342,-2.2409,-2.2439,-2.2492,-2.2563,-2.2596,-2.2589,-2.2699,-2.267,-2.2673,-2.2677,-2.2718,-2.2726,-2.2733,-2.2635,-2.2635,-2.2634,0,0,-2.2066,-2.2103,-2.2156,-2.2192,-2.2247,-2.2274,-2.2286,-2.2343,-2.2363,-2.2431,-2.2442,-2.2488,-2.2576,-2.2614,-2.2644,-2.2713,-2.2719,-2.2728,-2.2753,-2.2793,-2.28,-2.2807,-2.2831,-2.284,-2.2735,-2.2735,-2.2735,0,-2.2079,-2.2155,-2.2182,-2.2236,-2.2269,-2.2284,-2.2338,-2.2372,-2.244,-2.2463,-2.2454,-2.2565,-2.2602,-2.2682,-2.2699,-2.2723,-2.2739,-2.2722,-2.2797,-2.2804,-2.281,-2.2834,-2.2843,-2.2735,-2.2735,-2.2735,-2.2735,0,-2.2168,-2.2221,-2.2258,-2.2323,-2.2361,-2.2414,-2.2449,-2.2484,-2.2497,-2.2525,-2.2594,-2.2638,-2.2698,-2.2718,-2.2732,-2.2801,-2.2794,-2.2791,-2.2774,-2.2819,-2.2842,-2.2851,-2.2737,-2.2736,-2.2736,-2.2736,0,0,-2.2222,-2.2302,-2.2315,-2.2345,-2.2407,-2.2448,-2.2503,-2.2561,-2.259,-2.2637,-2.2684,-2.2758,-2.2755,-2.279,-2.2808,-2.2843,-2.2895,-2.2835,-2.2837,-2.2845,-2.2974,-2.2976,-2.2987,-2.2899,-2.2901,-2.2902,-2.297,0,-2.2284,-2.2381,-2.2407,-2.2489,-2.2539,-2.2553,-2.2601,-2.2644,-2.2671,-2.2717,-2.2747,-2.2799,-2.2791,-2.2813,-2.2848,-2.2881,-2.2921,-2.2876,-2.2943,-2.2945,-2.2929,-2.2999,-2.3001,-2.3063,-2.2979,-2.298,-2.2981,0,-2.2369,-2.2417,-2.2505,-2.256,-2.2582,-2.2624,-2.268,-2.2723,-2.2772,-2.279,-2.2829,-2.2843,-2.2901,-2.2881,-2.2961,-2.293,-2.2959,-2.2979,-2.2982,-2.2989,-2.2966,-2.3008,-2.3083,-2.3092,-2.2996,-2.2995,-2.2994,0,-2.24,-2.2487,-2.255,-2.2576,-2.2642,-2.2671,-2.27,-2.2748,-2.2781,-2.283,-2.2852,-2.2907,-2.2937,-2.2979,-2.3009,-2.2991,-2.3086,-2.3069,-2.3103,-2.3102,-2.3122,-2.312,-2.3203,-2.314,-2.314,-2.314,-2.314,0,-2.2466,-2.2519,-2.2565,-2.2604,-2.2664,-2.2693,-2.2752,-2.2781,-2.2824,-2.2869,-2.2885,-2.2927,-2.2963,-2.3011,-2.3034,-2.3097,-2.311,-2.3126,-2.3132,-2.3125,-2.3123,-2.3144,-2.3141,-2.3142,-2.3142,-2.3141,-2.3141,0,-2.2511,-2.2544,-2.2614,-2.2671,-2.2686,-2.2728,-2.2777,-2.2816,-2.2843,-2.29,-2.2915,-2.2959,-2.3015,-2.3049,-2.312,-2.3136,-2.3206,-2.3209,-2.3189,-2.3191,-2.3224,-2.322,-2.3323,-2.3338,-2.3265,-2.3266,-2.3266,0,-2.2551,-2.2592,-2.2653,-2.2684,-2.2714,-2.2764,-2.2798,-2.2829,-2.2864,-2.2923,-2.2955,-2.3012,-2.306,-2.315,-2.3188,-2.3243,-2.3248,-2.328,-2.3256,-2.3248,-2.3249,-2.3246,-2.3251,-2.3284,-2.3285,-2.3285,-2.3286,0,-2.2619,-2.2633,-2.2682,-2.2736,-2.2777,-2.2821,-2.2865,-2.289,-2.2928,-2.2967,-2.3025,-2.3062,-2.3135,-2.3192,-2.325,-2.328,-2.329,-2.3293,-2.3304,-2.3297,-2.3284,-2.3292,-2.32,-2.329,-2.329,-2.329,-2.3289,-2.3289,-2.2663,-2.27,-2.2749,-2.2803,-2.2839,-2.288,-2.2919,-2.2952,-2.3,-2.3062,-2.3077,-2.3138,-2.3187,-2.3266,-2.3297,-2.3346,-2.334,-2.3356,-2.336,-2.3363,-2.3365,-2.3276,-2.3356,-2.3356,-2.3356,-2.3356,-2.3356,0,-2.2732,-2.2764,-2.2813,-2.2874,-2.2917,-2.2922,-2.2971,-2.3006,-2.3059,-2.3104,-2.315,-2.3217,-2.3272,-2.3315,-2.3372,-2.3402,-2.3408,-2.3416,-2.3415,-2.3422,-2.3366,-2.3351,-2.3411,-2.3411,-2.3411,-2.3411,-2.3411,-2.3411,-2.2773,-2.2836,-2.2856,-2.2938,-2.297,-2.3029,-2.3057,-2.3095,-2.3131,-2.3205,-2.3251,-2.3278,-2.3322,-2.3382,-2.3433,-2.3444,-2.3465,-2.3472,-2.3484,-2.3431,-2.3425,-2.342,-2.3406,-2.3476,-2.3477,-2.3536,-2.3537,-2.3537]}]]